This is the latest recevied weather packets stored in our database for station/object VU3ZAG-13. If no packets are shown the sender has not sent any weather packets the latest 1 day(s).
| Time | Temp. | Humidity | Pressure | Rain* | Wind** | Luminosity | Snow |
|---|---|---|---|---|---|---|---|
| 1777990554 | 32.78° C | 38% | - | 0 mm | 2.24 m/s, 268° | - | - |
| 1777990245 | 32.78° C | 37% | - | 0 mm | 2.68 m/s, 284° | - | - |
| 1777989936 | 32.78° C | 36% | - | 0 mm | 1.79 m/s, 318° | - | - |
| 1777989628 | 32.78° C | 35% | - | 0 mm | 1.79 m/s, 304° | - | - |
| 1777989319 | 32.78° C | 35% | - | 0 mm | 1.79 m/s, 296° | - | - |
| 1777989010 | 32.78° C | 34% | - | 0 mm | 3.13 m/s, 285° | - | - |
| 1777988701 | 32.78° C | 34% | - | 0 mm | 1.34 m/s, 280° | - | - |
| 1777988393 | 33.33° C | 33% | - | 0 mm | 2.68 m/s, 283° | - | - |
| 1777988084 | 33.33° C | 33% | - | 0 mm | 2.24 m/s, 285° | - | - |
| 1777987776 | 33.33° C | 32% | - | 0 mm | 2.68 m/s, 285° | - | - |
| 1777987468 | 33.33° C | 32% | - | 0 mm | 3.13 m/s, 280° | - | - |
| 1777987159 | 33.33° C | 31% | - | 0 mm | 3.13 m/s, 270° | - | - |
| 1777986850 | 33.33° C | 31% | - | 0 mm | 3.13 m/s, 276° | - | - |
| 1777986542 | 32.78° C | 31% | - | 0 mm | 3.58 m/s, 282° | - | - |
| 1777986233 | 32.78° C | 31% | - | 0 mm | 2.68 m/s, 277° | - | - |
| 1777985924 | 32.78° C | 31% | - | 0 mm | 3.13 m/s, 286° | - | - |
| 1777985616 | 32.78° C | 31% | - | 0 mm | 2.24 m/s, 276° | - | - |
| 1777985307 | 32.78° C | 32% | - | 0 mm | 1.79 m/s, 283° | - | - |
| 1777984998 | 32.78° C | 33% | - | 0 mm | 3.13 m/s, 326° | - | - |
| 1777984688 | 32.78° C | 34% | - | 0 mm | 2.24 m/s, 293° | - | - |
| 1777984379 | 32.78° C | 35% | - | 0 mm | 2.68 m/s, 284° | - | - |
| 1777984070 | 32.78° C | 35% | - | 0 mm | 2.24 m/s, 273° | - | - |
| 1777983762 | 32.78° C | 34% | - | 0 mm | 4.02 m/s, 284° | - | - |
| 1777983452 | 32.78° C | 34% | - | 0 mm | 2.24 m/s, 283° | - | - |
| 1777983143 | 32.78° C | 33% | - | 0 mm | 1.79 m/s, 306° | - | - |
* Rain since midnight (hover to see other rain measurements)
** Current wind speed in m/s (hover to see current wind gust speed)